Total_Precipitation_Accumulation
0.06 0.07 0.16 0.16 0.08 0.05 0.07 0.10 0.12 0.12 0.11 0.11 0.11 0.10 0.09 0.05 0.03 0.03 0.02 0.02 0.02 0.03 0.04 0.04 0.05 0.06 0.07 0.08 0.10 0.11 0.13 0.16 0.24 0.30 0.38 0.44 0.59 0.75 0.93 1.12 1.26 1.14 0.89
0.01 0.03 0.15 0.18 0.13 0.09 0.08 0.10 0.13 0.14 0.13 0.13 0.12 0.12 0.10 0.07 0.04 0.03 0.02 0.03 0.03 0.03 0.04 0.04 0.05 0.05 0.06 0.06 0.07 0.08 0.12 0.19 0.26 0.38 0.54 0.63 0.73 0.87 0.94 1.07 1.23 0.97 0.72
0.01 0.01 0.07 0.15 0.13 0.11 0.10 0.11 0.12 0.13 0.13 0.12 0.12 0.11 0.09 0.05 0.04 0.03 0.03 0.02 0.03 0.04 0.03 0.04 0.05 0.04 0.04 0.05 0.05 0.08 0.14 0.22 0.32 0.53 0.76 0.81 0.59 0.75 0.83 1.00 1.07 0.69 0.58
0.01 0.01 0.02 0.11 0.12 0.11 0.11 0.12 0.12 0.11 0.10 0.10 0.09 0.09 0.06 0.04 0.04 0.04 0.03 0.03 0.04 0.04 0.04 0.05 0.05 0.04 0.03 0.03 0.05 0.09 0.15 0.25 0.39 0.68 0.85 0.78 0.55 0.54 0.66 0.67 0.72 0.59 0.53
0.03 0.02 0.04 0.09 0.10 0.10 0.10 0.10 0.10 0.09 0.08 0.08 0.08 0.07 0.05 0.04 0.04 0.04 0.04 0.04 0.05 0.06 0.06 0.06 0.06 0.05 0.04 0.04 0.06 0.12 0.20 0.32 0.48 0.61 0.57 0.69 0.75 0.58 0.54 0.52 0.58 0.53 0.46
0.04 0.03 0.06 0.09 0.10 0.11 0.10 0.10 0.09 0.08 0.07 0.07 0.07 0.06 0.04 0.04 0.04 0.05 0.05 0.05 0.06 0.08 0.08 0.07 0.07 0.07 0.06 0.06 0.08 0.15 0.26 0.39 0.48 0.42 0.38 0.45 0.52 0.55 0.51 0.49 0.48 0.45 0.34
0.03 0.04 0.06 0.11 0.12 0.13 0.12 0.12 0.11 0.10 0.08 0.08 0.08 0.06 0.05 0.05 0.05 0.06 0.07 0.08 0.08 0.10 0.10 0.10 0.10 0.10 0.10 0.09 0.11 0.17 0.29 0.42 0.40 0.39 0.40 0.45 0.44 0.46 0.52 0.56 0.51 0.38 0.29
0.04 0.04 0.07 0.12 0.14 0.15 0.15 0.15 0.14 0.12 0.10 0.10 0.09 0.07 0.07 0.07 0.07 0.08 0.10 0.12 0.11 0.12 0.11 0.11 0.10 0.10 0.10 0.11 0.13 0.17 0.26 0.32 0.32 0.33 0.35 0.41 0.45 0.44 0.59 0.57 0.48 0.37 0.31
0.14 0.08 0.08 0.09 0.12 0.15 0.19 0.18 0.16 0.13 0.12 0.11 0.10 0.08 0.07 0.07 0.08 0.09 0.11 0.14 0.15 0.15 0.13 0.13 0.12 0.13 0.14 0.14 0.15 0.17 0.24 0.27 0.33 0.48 0.47 0.38 0.43 0.48 0.74 0.69 0.54 0.46 0.40
0.30 0.19 0.13 0.13 0.19 0.20 0.19 0.19 0.19 0.17 0.14 0.12 0.10 0.08 0.08 0.08 0.12 0.16 0.16 0.18 0.22 0.24 0.23 0.23 0.24 0.26 0.26 0.24 0.23 0.25 0.30 0.28 0.34 0.53 0.47 0.33 0.40 0.58 0.85 0.85 0.72 0.67 0.58
0.41 0.39 0.31 0.28 0.27 0.30 0.30 0.27 0.29 0.28 0.27 0.23 0.23 0.22 0.21 0.26 0.34 0.47 0.45 0.49 0.46 0.46 0.48 0.47 0.48 0.51 0.49 0.36 0.39 0.43 0.35 0.29 0.47 0.57 0.45 0.36 0.47 0.73 0.88 0.93 0.85 0.77 0.74
0.61 0.58 0.54 0.46 0.38 0.34 0.37 0.51 0.61 0.60 0.66 0.61 0.66 0.65 0.64 0.65 0.61 0.60 0.77 0.86 0.89 0.98 0.97 0.97 1.11 0.97 0.71 0.51 0.67 0.75 0.42 0.36 0.43 0.48 0.38 0.42 0.55 0.80 0.97 0.96 0.90 0.82 0.79
0.85 0.74 0.60 0.58 0.59 0.62 0.72 0.75 0.81 0.91 1.03 1.12 1.17 1.16 1.22 1.07 0.91 0.86 1.11 1.26 1.24 1.25 1.14 1.42 1.62 1.20 1.11 1.12 1.12 0.99 0.75 0.64 0.62 0.56 0.56 0.65 0.75 0.98 1.13 1.02 0.97 0.93 0.79
1.17 1.15 1.04 0.92 0.91 0.94 0.93 0.88 0.89 0.89 0.99 1.07 1.16 1.26 1.41 1.43 1.31 1.33 1.45 1.33 1.30 1.33 1.51 1.60 1.72 1.54 1.45 1.43 1.37 1.36 1.30 1.01 0.90 0.86 0.96 1.07 1.11 1.21 1.30 1.23 1.14 1.05 0.96
1.77 1.80 1.91 1.61 1.37 1.24 1.07 0.93 0.87 0.85 0.80 0.79 0.88 1.13 1.30 1.41 1.48 1.57 1.41 1.24 1.10 1.38 1.66 1.71 1.56 1.66 1.67 1.76 1.73 1.70 1.68 1.34 1.15 1.11 1.15 1.42 1.40 1.34 1.41 1.48 1.42 1.30 1.26
2.49 2.42 2.38 2.25 1.90 1.55 1.25 1.04 0.93 0.81 0.80 0.82 0.89 0.99 1.16 1.28 1.35 1.40 1.34 1.23 1.19 1.36 1.55 1.59 1.56 1.75 1.82 1.80 1.50 1.42 1.38 1.38 1.28 1.07 1.16 1.37 1.43 1.31 1.35 1.53 1.59 1.55 1.58
2.92 3.00 3.00 2.87 2.48 2.15 1.83 1.43 1.12 0.98 0.91 0.94 0.96 0.90 0.94 1.04 1.06 1.17 1.18 1.16 1.20 1.26 1.31 1.29 1.30 1.50 1.46 1.35 1.21 1.16 1.18 1.18 1.19 1.17 1.05 1.08 1.23 1.33 1.27 1.39 1.48 1.49 1.58
3.49 3.75 3.73 3.41 3.05 2.57 2.10 1.73 1.46 1.31 1.19 1.03 0.93 0.81 0.69 0.74 0.80 0.87 0.85 0.89 0.95 1.00 1.02 0.99 1.02 1.12 1.18 1.26 1.27 1.12 1.19 1.20 1.13 1.23 1.24 1.09 1.14 1.13 1.39 1.54 1.51 1.43 1.56
4.70 5.00 4.64 3.92 3.43 2.77 2.11 1.74 1.61 1.56 1.39 1.19 1.05 0.89 0.72 0.67 0.71 0.76 0.74 0.74 0.72 0.75 0.77 0.73 0.81 0.91 0.97 1.03 1.00 1.02 0.99 0.99 0.94 0.95 1.11 0.99 1.02 1.11 1.26 1.39 1.49 1.44 1.62
5.21 5.65 5.26 4.43 3.58 2.81 2.29 1.93 1.68 1.55 1.35 1.14 1.03 0.88 0.72 0.63 0.62 0.60 0.58 0.55 0.51 0.52 0.56 0.60 0.69 0.78 0.80 0.85 0.80 0.82 0.80 0.73 0.72 0.76 0.74 0.77 0.84 0.83 0.97 1.17 1.32 1.15 1.42
4.37 4.70 4.42 3.59 2.91 2.35 1.86 1.38 1.14 1.04 0.91 0.79 0.75 0.67 0.62 0.57 0.52 0.47 0.41 0.41 0.37 0.37 0.39 0.41 0.48 0.56 0.59 0.67 0.75 0.73 0.65 0.61 0.60 0.59 0.57 0.57 0.59 0.71 0.87 1.03 1.10 1.07 0.99
2.98 3.00 2.42 2.01 1.64 1.29 1.06 0.80 0.62 0.53 0.46 0.42 0.40 0.37 0.34 0.37 0.40 0.39 0.37 0.36 0.35 0.35 0.34 0.36 0.42 0.45 0.47 0.54 0.60 0.59 0.54 0.52 0.53 0.46 0.52 0.53 0.53 0.69 0.79 0.80 0.88 0.96 0.82
1.95 1.75 1.41 1.20 1.11 0.87 0.71 0.52 0.40 0.33 0.30 0.27 0.24 0.23 0.22 0.23 0.26 0.29 0.33 0.36 0.35 0.31 0.30 0.33 0.34 0.36 0.36 0.38 0.48 0.53 0.49 0.45 0.41 0.39 0.43 0.47 0.54 0.62 0.64 0.74 0.71 0.69 0.76
1.21 1.09 1.14 1.13 1.00 0.76 0.62 0.42 0.28 0.21 0.19 0.17 0.16 0.16 0.18 0.17 0.16 0.18 0.24 0.29 0.30 0.31 0.31 0.25 0.26 0.31 0.32 0.28 0.32 0.40 0.38 0.39 0.44 0.42 0.40 0.45 0.53 0.52 0.51 0.56 0.58 0.60 0.63
0.84 0.95 1.15 1.15 0.94 0.71 0.57 0.46 0.40 0.31 0.26 0.21 0.19 0.20 0.20 0.20 0.20 0.17 0.17 0.22 0.27 0.33 0.38 0.35 0.32 0.30 0.29 0.26 0.26 0.34 0.34 0.30 0.35 0.42 0.41 0.40 0.44 0.38 0.36 0.37 0.38 0.45 0.49
0.73 0.75 0.82 0.87 0.92 0.83 0.74 0.59 0.51 0.46 0.41 0.33 0.28 0.26 0.26 0.26 0.29 0.27 0.27 0.30 0.33 0.33 0.34 0.36 0.39 0.38 0.36 0.33 0.26 0.29 0.42 0.39 0.29 0.35 0.35 0.39 0.39 0.28 0.30 0.34 0.36 0.40 0.47